Columbia, MO

9:27 AM CDT on June 24, 2017 (GMT -0500)
Columbia Regional

Weather History for KCOU - February, 2015

Change the Weather History Date:

Tuesday, February 17, 2015

  Actual Average Record
Temperature  
Mean Temperature 25 °F 35 °F  
Max Temperature 34 °F 45 °F 74 °F (2011)
Min Temperature 16 °F 25 °F -15 °F (1903)
Degree Days  
Heating Degree Days 40 30  
Month to date heating degree days 608 549  
Since 1 July heating degree days 3567 3638  
Cooling Degree Days 0 0  
Month to date cooling degree days 0 0  
Year to date cooling degree days 0 0  
Moisture  
Dew Point 16 °F    
Average Humidity 70    
Maximum Humidity 88    
Minimum Humidity 51    
Precipitation  
Precipitation 0.01 in 0.08 in 1.11 in (2008)
Month to date precipitation 0.87 1.31  
Year to date precipitation 1.81 3.23  
Snow  
Snow 0.30 in 0.20 in 1.50 in (1936)
Month to date snowfall 4.7 3.1  
Since 1 July snowfall 6.6 14.5  
Snow Depth 2.00 in    
Sea Level Pressure  
Sea Level Pressure 30.07 in    
Wind  
Wind Speed 8 mph (WNW)    
Max Wind Speed 25 mph    
Max Gust Speed 30 mph    
Visibility 8 miles    
Events Snow    
T = Trace of Precipitation, MM = Missing Value Source: NWS Daily Summary

Daily Weather History Graph

Daily Weather History Graph

Search for Another Location

Airport or City:

Trip Planner

Search our weather history database for the weather conditions in past years. The results will help you decide how hot, cold, wet, or windy it might be!

Date:

Astronomy

Feb. 17, 2015 Rise Set
Actual Time 6:57 AM CST 5:48 PM CST
Civil Twilight 6:30 AM CST 6:15 PM CST
Nautical Twilight 5:59 AM CST 6:46 PM CST
Astronomical Twilight 5:28 AM CST 7:17 PM CST
Moon 5:41 AM CST (2/17) 4:38 PM CST (2/17)
Length of Visible Light 11h 45m
Length of Day
10h 50m
Waning Crescent, 2% of the Moon is Illuminated
Feb 17
Waning Crescent
Feb 18
New
Feb 25
First Quarter
Mar 5
Full
Mar 13
Last Quarter

Hourly Weather History & Observations

Time (CST) Temp. Windchill Dew Point Humidity Pressure Visibility Wind Dir Wind Speed Gust Speed Precip Events Conditions
12:54 AM 18.0 °F 6.9 °F 10.9 °F 74% 30.12 in 10.0 mi West 9.2 mph - N/A   Overcast
1:54 AM 19.0 °F 8.2 °F 12.0 °F 74% 30.13 in 10.0 mi West 9.2 mph - N/A   Overcast
2:54 AM 19.0 °F 8.2 °F 12.9 °F 77% 30.11 in 10.0 mi West 9.2 mph - N/A   Overcast
3:54 AM 19.9 °F 10.1 °F 12.9 °F 74% 30.10 in 10.0 mi West 8.1 mph - N/A   Overcast
4:54 AM 18.0 °F 9.8 °F 10.9 °F 74% 30.09 in 10.0 mi West 5.8 mph - N/A   Partly Cloudy
5:54 AM 18.0 °F 9.8 °F 12.0 °F 78% 30.12 in 10.0 mi SW 5.8 mph - N/A   Overcast
6:54 AM 19.9 °F 11.1 °F 12.9 °F 74% 30.11 in 10.0 mi WSW 6.9 mph - N/A   Overcast
7:54 AM 19.9 °F 12.1 °F 14.0 °F 78% 30.12 in 10.0 mi NW 5.8 mph - N/A   Overcast
8:54 AM 23.0 °F 13.9 °F 15.8 °F 74% 30.09 in 10.0 mi NW 8.1 mph - N/A   Overcast
9:54 AM 24.1 °F 16.0 °F 16.0 °F 71% 30.11 in 10.0 mi North 6.9 mph - N/A   Mostly Cloudy
10:54 AM 26.1 °F - 16.0 °F 66% 30.10 in 10.0 mi Calm Calm - N/A   Mostly Cloudy
11:54 AM 27.0 °F - 15.1 °F 61% 30.10 in 10.0 mi Calm Calm - N/A   Mostly Cloudy
12:54 PM 30.0 °F - 16.0 °F 56% 30.06 in 10.0 mi Calm Calm - N/A   Partly Cloudy
1:54 PM 33.1 °F - 18.0 °F 54% 30.03 in 10.0 mi Calm Calm - N/A   Partly Cloudy
2:54 PM 30.9 °F - 18.0 °F 59% 30.03 in 10.0 mi North - - N/A   Mostly Cloudy
3:54 PM 30.0 °F 21.1 °F 18.0 °F 61% 30.02 in 10.0 mi NW 10.4 mph - N/A   Overcast
4:48 PM 28.4 °F 17.5 °F 17.6 °F 64% 30.01 in 2.0 mi WNW 13.8 mph - 0.00 in Snow Light Snow
4:54 PM 28.0 °F 20.0 °F 19.0 °F 69% 30.03 in 1.2 mi West 8.1 mph - 0.00 in Snow Light Snow
5:19 PM 26.1 °F 15.0 °F 21.0 °F 81% 30.01 in 0.8 mi WNW 12.7 mph - 0.01 in Snow Light Snow
5:42 PM 25.0 °F 14.8 °F 21.9 °F 88% 30.00 in 1.8 mi WNW 10.4 mph - 0.01 in Snow Light Snow
5:54 PM 25.0 °F 16.3 °F 21.0 °F 85% 30.04 in 2.5 mi WNW 8.1 mph - 0.01 in Snow Light Snow
6:02 PM 25.0 °F 16.3 °F 21.0 °F 85% 30.00 in 5.0 mi West 8.1 mph - 0.00 in Snow Light Snow
6:54 PM 25.0 °F 16.3 °F 19.9 °F 81% 30.03 in 10.0 mi West 8.1 mph - 0.00 in   Overcast
7:54 PM 24.1 °F 16.0 °F 19.9 °F 84% 30.04 in 10.0 mi WNW 6.9 mph - N/A   Overcast
8:54 PM 25.0 °F 14.2 °F 19.9 °F 81% 30.04 in 9.0 mi West 11.5 mph - 0.00 in   Overcast
9:01 PM 25.0 °F 14.2 °F 19.9 °F 81% 30.00 in 6.0 mi West 11.5 mph - 0.00 in Snow Light Snow
9:14 PM 25.0 °F 13.6 °F 21.0 °F 85% 30.01 in 2.5 mi WNW 12.7 mph 21.9 mph 0.00 in Snow Light Snow
9:21 PM 25.0 °F 13.6 °F 19.9 °F 81% 30.01 in 8.0 mi WNW 12.7 mph 20.7 mph 0.00 in Snow Light Snow
9:54 PM 24.1 °F 9.8 °F 17.1 °F 75% 30.06 in 10.0 mi NW 19.6 mph 28.8 mph 0.00 in   Overcast
10:54 PM 21.0 °F 5.4 °F 10.9 °F 65% 30.08 in 10.0 mi NW 20.7 mph 25.3 mph 0.00 in   Scattered Clouds
11:54 PM 19.0 °F 6.8 °F 7.0 °F 59% 30.09 in 10.0 mi NW 11.5 mph - N/A   Clear